| time (UTC) | temp F | wind direction | speed MPH | gust MPH | rain 1hr in | rain 24hr in | rain mn in | humidity % | barometer mb |
| 20260904022556 | 82 | 142 | 6.0 | 8.0 | 0.00 | 0.00 | 0.00 | 74 | 1010.7 |
| 20260904022053 | 82 | 180 | 3.0 | 10.0 | 0.00 | 0.00 | 0.00 | 73 | 1010.6 |
| 20260904021548 | 82 | 153 | 7.0 | 9.0 | 0.00 | 0.00 | 0.00 | 73 | 1010.7 |
| 20260904021043 | 83 | 140 | 5.0 | 8.0 | 0.00 | 0.00 | 0.00 | 73 | 1010.2 |
| 20260904020538 | 83 | 107 | 2.0 | 6.0 | 0.00 | 0.00 | 0.00 | 72 | 1010.4 |
| 20260904020033 | 83 | 168 | 7.0 | 11.0 | 0.00 | 0.00 | 0.00 | 72 | 1010.3 |
| 20260904015528 | 83 | 168 | 3.0 | 12.0 | 0.00 | 0.00 | 0.00 | 72 | 1010.0 |
| 20260904015026 | 83 | 127 | 4.0 | 15.0 | 0.00 | 0.00 | 0.00 | 71 | 1010.2 |
| 20260904014520 | 83 | 161 | 2.0 | 9.0 | 0.00 | 0.00 | 0.00 | 71 | 1010.0 |
| 20260904014016 | 83 | 143 | 5.0 | 8.0 | 0.00 | 0.00 | 0.00 | 71 | 1009.9 |
| 20260904013512 | 84 | 245 | 0.0 | 5.0 | 0.00 | 0.00 | 0.00 | 71 | 1010.0 |
| 20260904013009 | 84 | 144 | 3.0 | 7.0 | 0.00 | 0.00 | 0.00 | 70 | 1009.7 |
| 20260904012508 | 84 | 162 | 4.0 | 15.0 | 0.00 | 0.00 | 0.00 | 69 | 1009.7 |
| 20260904012002 | 84 | 142 | 9.0 | 15.0 | 0.00 | 0.00 | 0.00 | 69 | 1009.6 |
| 20260904011457 | 84 | 88 | 0.0 | 11.0 | 0.00 | 0.00 | 0.00 | 68 | 1009.3 |
| 20260904010952 | 84 | 148 | 3.0 | 10.0 | 0.00 | 0.00 | 0.00 | 68 | 1009.4 |
| 20260904010449 | 85 | 172 | 5.0 | 17.0 | 0.00 | 0.00 | 0.00 | 67 | 1009.4 |
| 20260904005949 | 85 | 135 | 6.0 | 18.0 | 0.00 | 0.00 | 0.00 | 66 | 1009.4 |
| 20260904005445 | 85 | 145 | 8.0 | 15.0 | 0.00 | 0.00 | 0.00 | 66 | 1009.5 |
| 20260904004939 | 86 | 131 | 7.0 | 14.0 | 0.00 | 0.00 | 0.00 | 65 | 1009.5 |
| 20260904004436 | 86 | 146 | 7.0 | 22.0 | 0.00 | 0.00 | 0.00 | 64 | 1009.4 |
| 20260904003936 | 86 | 127 | 17.0 | 17.0 | 0.00 | 0.00 | 0.00 | 62 | 1009.4 |
| 20260904003432 | 87 | 130 | 6.0 | 14.0 | 0.00 | 0.00 | 0.00 | 61 | 1009.6 |
| 20260904002927 | 87 | 154 | 4.0 | 13.0 | 0.00 | 0.00 | 0.00 | 62 | 1009.6 |
| 20260904002423 | 87 | 124 | 15.0 | 15.0 | 0.00 | 0.00 | 0.00 | 62 | 1009.4 |
| 20260904001922 | 88 | 194 | 2.0 | 16.0 | 0.00 | 0.00 | 0.00 | 62 | 1009.4 |
| 20260904001418 | 88 | 141 | 5.0 | 10.0 | 0.00 | 0.00 | 0.00 | 62 | 1009.2 |
| 20260904000912 | 88 | 139 | 4.0 | 16.0 | 0.00 | 0.00 | 0.00 | 62 | 1009.5 |
| 20260904000412 | 89 | 150 | 15.0 | 15.0 | 0.00 | 0.00 | 0.00 | 61 | 1009.3 |
| 20260903235907 | 89 | 154 | 5.0 | 20.0 | 0.00 | 0.00 | 0.00 | 61 | 1009.4 |
| 20260903235403 | 89 | 135 | 7.0 | 17.0 | 0.00 | 0.00 | 0.00 | 60 | 1009.3 |
| 20260903234902 | 90 | 159 | 12.0 | 16.0 | 0.00 | 0.00 | 0.00 | 60 | 1009.4 |
| 20260903234358 | 90 | 173 | 3.0 | 12.0 | 0.00 | 0.00 | 0.00 | 62 | 1009.3 |
| 20260903233854 | 90 | 139 | 6.0 | 17.0 | 0.00 | 0.00 | 0.00 | 63 | 1009.1 |
| 20260903233350 | 90 | 145 | 19.0 | 19.0 | 0.00 | 0.00 | 0.00 | 62 | 1009.0 |
| 20260903232849 | 91 | 133 | 8.0 | 22.0 | 0.00 | 0.00 | 0.00 | 62 | 1008.9 |
| 20260903232345 | 91 | 158 | 11.0 | 19.0 | 0.00 | 0.00 | 0.00 | 62 | 1009.0 |
| 20260903231844 | 91 | 149 | 11.0 | 16.0 | 0.00 | 0.00 | 0.00 | 61 | 1008.9 |
| 20260903231339 | 91 | 157 | 5.0 | 15.0 | 0.00 | 0.00 | 0.00 | 61 | 1008.8 |
| 20260903230835 | 91 | 159 | 3.0 | 16.0 | 0.00 | 0.00 | 0.00 | 61 | 1008.9 |
| 20260903230330 | 92 | 149 | 6.0 | 16.0 | 0.00 | 0.00 | 0.00 | 61 | 1008.8 |
| 20260903225826 | 91 | 126 | 4.0 | 14.0 | 0.00 | 0.00 | 0.00 | 62 | 1008.6 |
| 20260903225322 | 91 | 143 | 4.0 | 17.0 | 0.00 | 0.00 | 0.00 | 63 | 1008.7 |
| 20260903224818 | 91 | 132 | 6.0 | 15.0 | 0.00 | 0.00 | 0.00 | 63 | 1008.7 |
| 20260903224314 | 91 | 167 | 2.0 | 13.0 | 0.00 | 0.00 | 0.00 | 63 | 1008.8 |
| 20260903223810 | 92 | 165 | 3.0 | 11.0 | 0.00 | 0.00 | 0.00 | 63 | 1008.8 |
| 20260903223308 | 92 | 166 | 3.0 | 13.0 | 0.00 | 0.00 | 0.00 | 63 | 1008.9 |
| 20260903222804 | 92 | 154 | 4.0 | 17.0 | 0.00 | 0.00 | 0.00 | 64 | 1008.6 |
| 20260903222305 | 92 | 149 | 11.0 | 19.0 | 0.00 | 0.00 | 0.00 | 64 | 1008.5 |
| 20260903221757 | 92 | 119 | 4.0 | 13.0 | 0.00 | 0.00 | 0.00 | 63 | 1008.9 |
| 20260903221256 | 92 | 110 | 11.0 | 14.0 | 0.00 | 0.00 | 0.00 | 63 | 1008.8 |
| 20260903220754 | 92 | 167 | 2.0 | 16.0 | 0.00 | 0.00 | 0.00 | 64 | 1008.7 |
| 20260903220249 | 93 | 149 | 4.0 | 13.0 | 0.00 | 0.00 | 0.00 | 62 | 1009.0 |
| 20260903215747 | 92 | 98 | 5.0 | 13.0 | 0.00 | 0.00 | 0.00 | 63 | 1008.7 |
| 20260903215244 | 93 | 130 | 6.0 | 14.0 | 0.00 | 0.00 | 0.00 | 62 | 1008.9 |
| 20260903214742 | 93 | 151 | 7.0 | 18.0 | 0.00 | 0.00 | 0.00 | 63 | 1008.7 |
| 20260903214239 | 93 | 167 | 6.0 | 14.0 | 0.00 | 0.00 | 0.00 | 62 | 1008.7 |
| 20260903213732 | 93 | 144 | 4.0 | 16.0 | 0.00 | 0.00 | 0.00 | 62 | 1008.7 |
| 20260903213228 | 94 | 174 | 3.0 | 11.0 | 0.00 | 0.00 | 0.00 | 62 | 1008.9 |
| 20260903212724 | 92 | 106 | 3.0 | 12.0 | 0.00 | 0.00 | 0.00 | 64 | 1009.0 |
| 20260903212220 | 91 | 166 | 3.0 | 8.0 | 0.00 | 0.00 | 0.00 | 65 | 1008.8 |
| 20260903211713 | 91 | 144 | 6.0 | 13.0 | 0.00 | 0.00 | 0.00 | 65 | 1008.8 |
| 20260903211210 | 92 | 162 | 5.0 | 8.0 | 0.00 | 0.00 | 0.00 | 65 | 1009.1 |
| 20260903210706 | 91 | 206 | 3.0 | 11.0 | 0.00 | 0.00 | 0.00 | 66 | 1008.7 |
| 20260903210201 | 91 | 163 | 9.0 | 13.0 | 0.00 | 0.00 | 0.00 | 66 | 1009.0 |
| 20260903205701 | 91 | 157 | 9.0 | 11.0 | 0.00 | 0.00 | 0.00 | 66 | 1009.2 |
| 20260903205200 | 91 | 152 | 11.0 | 13.0 | 0.00 | 0.00 | 0.00 | 66 | 1009.3 |
| 20260903204656 | 91 | 148 | 8.0 | 12.0 | 0.00 | 0.00 | 0.00 | 66 | 1009.4 |
| 20260903204152 | 91 | 136 | 3.0 | 12.0 | 0.00 | 0.00 | 0.00 | 66 | 1009.2 |
| 20260903203647 | 91 | 176 | 6.0 | 13.0 | 0.00 | 0.00 | 0.00 | 67 | 1009.3 |
| 20260903203142 | 91 | 169 | 4.0 | 11.0 | 0.00 | 0.00 | 0.00 | 67 | 1009.4 |
| 20260903202637 | 90 | 162 | 5.0 | 17.0 | 0.00 | 0.00 | 0.00 | 68 | 1009.3 |
| 20260903202132 | 90 | 141 | 6.0 | 19.0 | 0.00 | 0.00 | 0.00 | 69 | 1009.5 |
| 20260903201626 | 90 | 150 | 4.0 | 11.0 | 0.00 | 0.00 | 0.00 | 69 | 1009.8 |
| 20260903201126 | 90 | 184 | 7.0 | 15.0 | 0.00 | 0.00 | 0.00 | 70 | 1009.8 |
| 20260903200621 | 91 | 165 | 5.0 | 11.0 | 0.00 | 0.00 | 0.00 | 69 | 1009.7 |
| 20260903200116 | 89 | 153 | 9.0 | 17.0 | 0.00 | 0.00 | 0.00 | 72 | 1009.6 |
| 20260903195612 | 89 | 166 | 11.0 | 15.0 | 0.00 | 0.00 | 0.00 | 72 | 1009.8 |
| 20260903195108 | 89 | 160 | 7.0 | 15.0 | 0.00 | 0.00 | 0.00 | 72 | 1009.7 |
| 20260903194603 | 89 | 150 | 5.0 | 15.0 | 0.00 | 0.00 | 0.00 | 72 | 1010.0 |
| 20260903194057 | 88 | 158 | 9.0 | 21.0 | 0.00 | 0.00 | 0.00 | 73 | 1009.9 |
| 20260903193553 | 88 | 147 | 9.0 | 18.0 | 0.00 | 0.00 | 0.00 | 73 | 1010.2 |
| 20260903193049 | 88 | 133 | 10.0 | 14.0 | 0.00 | 0.00 | 0.00 | 73 | 1010.3 |
| 20260903192545 | 88 | 111 | 2.0 | 15.0 | 0.00 | 0.00 | 0.00 | 74 | 1010.2 |
| 20260903192040 | 88 | 180 | 6.0 | 17.0 | 0.00 | 0.00 | 0.00 | 73 | 1010.4 |
| 20260903191537 | 88 | 159 | 11.0 | 20.0 | 0.00 | 0.00 | 0.00 | 74 | 1010.3 |
| 20260903191037 | 89 | 188 | 7.0 | 20.0 | 0.00 | 0.00 | 0.00 | 73 | 1010.7 |
| 20260903190536 | 88 | 178 | 5.0 | 11.0 | 0.00 | 0.00 | 0.00 | 74 | 1010.5 |
| 20260903190030 | 89 | 134 | 5.0 | 15.0 | 0.00 | 0.00 | 0.00 | 73 | 1010.8 |
| 20260903185526 | 89 | 198 | 7.0 | 11.0 | 0.00 | 0.00 | 0.00 | 72 | 1010.6 |
| 20260903185021 | 88 | 180 | 5.0 | 10.0 | 0.00 | 0.00 | 0.00 | 74 | 1011.0 |
| 20260903184518 | 87 | 169 | 7.0 | 22.0 | 0.00 | 0.00 | 0.00 | 75 | 1010.9 |
| 20260903184018 | 88 | 173 | 14.0 | 17.0 | 0.00 | 0.00 | 0.00 | 74 | 1011.1 |
| 20260903183517 | 87 | 162 | 8.0 | 18.0 | 0.00 | 0.00 | 0.00 | 76 | 1011.0 |
| 20260903183012 | 86 | 152 | 7.0 | 20.0 | 0.00 | 0.00 | 0.00 | 76 | 1011.0 |
| 20260903182510 | 86 | 155 | 9.0 | 20.0 | 0.00 | 0.00 | 0.00 | 76 | 1011.2 |
| 20260903182007 | 87 | 132 | 10.0 | 18.0 | 0.00 | 0.00 | 0.00 | 75 | 1011.3 |
| 20260903181500 | 87 | 164 | 8.0 | 16.0 | 0.00 | 0.00 | 0.00 | 75 | 1011.4 |
| 20260903180959 | 87 | 165 | 6.0 | 16.0 | 0.00 | 0.00 | 0.00 | 75 | 1011.3 |
| 20260903180455 | 87 | 144 | 8.0 | 15.0 | 0.00 | 0.00 | 0.00 | 75 | 1011.5 |
| 20260903175954 | 87 | 159 | 9.0 | 16.0 | 0.00 | 0.00 | 0.00 | 76 | 1011.4 |
| 20260903175448 | 87 | 155 | 5.0 | 19.0 | 0.00 | 0.00 | 0.00 | 75 | 1011.4 |
| 20260903174947 | 87 | 145 | 5.0 | 13.0 | 0.00 | 0.00 | 0.00 | 73 | 1011.9 |
| 20260903174443 | 86 | 133 | 9.0 | 20.0 | 0.00 | 0.00 | 0.00 | 74 | 1011.9 |
| 20260903173942 | 87 | 166 | 7.0 | 18.0 | 0.00 | 0.00 | 0.00 | 74 | 1011.7 |
| 20260903173438 | 86 | 174 | 10.0 | 19.0 | 0.00 | 0.00 | 0.00 | 74 | 1011.9 |
| 20260903172933 | 86 | 164 | 5.0 | 15.0 | 0.00 | 0.00 | 0.00 | 74 | 1012.2 |
| 20260903172428 | 87 | 192 | 6.0 | 14.0 | 0.00 | 0.00 | 0.00 | 74 | 1012.0 |
| 20260903171924 | 87 | 157 | 6.0 | 15.0 | 0.00 | 0.00 | 0.00 | 74 | 1012.1 |
| 20260903171418 | 87 | 144 | 6.0 | 11.0 | 0.00 | 0.00 | 0.00 | 73 | 1012.1 |
| 20260903170913 | 87 | 161 | 3.0 | 14.0 | 0.00 | 0.00 | 0.00 | 73 | 1012.2 |
| 20260903170408 | 87 | 172 | 4.0 | 14.0 | 0.00 | 0.00 | 0.00 | 73 | 1012.3 |
| 20260903165907 | 87 | 156 | 4.0 | 13.0 | 0.00 | 0.00 | 0.00 | 72 | 1012.1 |
| 20260903165401 | 87 | 160 | 9.0 | 16.0 | 0.00 | 0.00 | 0.00 | 72 | 1012.2 |
| 20260903164856 | 88 | 161 | 7.0 | 11.0 | 0.00 | 0.00 | 0.00 | 72 | 1012.0 |
| 20260903164351 | 87 | 168 | 15.0 | 15.0 | 0.00 | 0.00 | 0.00 | 73 | 1012.2 |
| 20260903163850 | 87 | 172 | 11.0 | 13.0 | 0.00 | 0.00 | 0.00 | 74 | 1012.0 |
| 20260903163347 | 86 | 160 | 13.0 | 13.0 | 0.00 | 0.00 | 0.00 | 75 | 1011.9 |
| 20260903162842 | 87 | 141 | 7.0 | 15.0 | 0.00 | 0.00 | 0.00 | 74 | 1012.1 |
| 20260903162339 | 87 | 158 | 4.0 | 12.0 | 0.00 | 0.00 | 0.00 | 75 | 1011.8 |
| 20260903161834 | 87 | 147 | 6.0 | 12.0 | 0.00 | 0.00 | 0.00 | 75 | 1011.9 |
| 20260903161330 | 87 | 173 | 3.0 | 19.0 | 0.00 | 0.00 | 0.00 | 76 | 1012.1 |
| 20260903160825 | 86 | 151 | 3.0 | 12.0 | 0.00 | 0.00 | 0.00 | 77 | 1012.0 |
| 20260903160324 | 86 | 165 | 4.0 | 10.0 | 0.00 | 0.00 | 0.00 | 77 | 1011.7 |
| 20260903155823 | 86 | 179 | 3.0 | 9.0 | 0.00 | 0.00 | 0.00 | 77 | 1012.1 |
| 20260903155318 | 85 | 151 | 6.0 | 11.0 | 0.00 | 0.00 | 0.00 | 78 | 1011.8 |
| 20260903154814 | 85 | 146 | 6.0 | 14.0 | 0.00 | 0.00 | 0.00 | 77 | 1011.8 |
| 20260903154310 | 86 | 193 | 7.0 | 11.0 | 0.00 | 0.00 | 0.00 | 76 | 1011.8 |
| 20260903153805 | 85 | 183 | 4.0 | 9.0 | 0.00 | 0.00 | 0.00 | 78 | 1011.8 |
| 20260903153301 | 86 | 155 | 7.0 | 14.0 | 0.00 | 0.00 | 0.00 | 77 | 1011.7 |
| 20260903152757 | 86 | 164 | 5.0 | 7.0 | 0.00 | 0.00 | 0.00 | 77 | 1011.9 |
| 20260903152252 | 86 | 234 | 3.0 | 8.0 | 0.00 | 0.00 | 0.00 | 77 | 1011.9 |
| 20260903151752 | 85 | 180 | 5.0 | 8.0 | 0.00 | 0.00 | 0.00 | 78 | 1011.8 |
| 20260903151248 | 85 | 202 | 5.0 | 13.0 | 0.00 | 0.00 | 0.00 | 79 | 1011.5 |
| 20260903150748 | 85 | 199 | 5.0 | 13.0 | 0.00 | 0.00 | 0.00 | 78 | 1011.8 |
| 20260903150242 | 85 | 169 | 4.0 | 12.0 | 0.00 | 0.00 | 0.00 | 79 | 1011.7 |
| 20260903145738 | 84 | 136 | 3.0 | 7.0 | 0.00 | 0.00 | 0.00 | 80 | 1011.5 |
| 20260903145233 | 84 | 155 | 5.0 | 10.0 | 0.00 | 0.00 | 0.00 | 80 | 1011.8 |
| 20260903144731 | 84 | 166 | 8.0 | 12.0 | 0.00 | 0.00 | 0.00 | 80 | 1011.7 |
| 20260903144228 | 84 | 165 | 3.0 | 13.0 | 0.00 | 0.00 | 0.00 | 81 | 1011.5 |
| 20260903143723 | 84 | 184 | 8.0 | 10.0 | 0.00 | 0.00 | 0.00 | 81 | 1011.4 |
| 20260903143219 | 83 | 167 | 2.0 | 13.0 | 0.00 | 0.00 | 0.00 | 82 | 1011.7 |
| 20260903142715 | 83 | 169 | 6.0 | 15.0 | 0.00 | 0.00 | 0.00 | 82 | 1011.4 |
| 20260903142211 | 83 | 149 | 5.0 | 11.0 | 0.00 | 0.00 | 0.00 | 82 | 1011.5 |
| 20260903141706 | 83 | 160 | 7.0 | 13.0 | 0.00 | 0.00 | 0.00 | 82 | 1011.7 |
| 20260903141202 | 83 | 152 | 6.0 | 12.0 | 0.00 | 0.00 | 0.00 | 82 | 1011.5 |
| 20260903140657 | 83 | 172 | 3.0 | 11.0 | 0.00 | 0.00 | 0.00 | 82 | 1011.5 |
| 20260903140151 | 83 | 154 | 5.0 | 12.0 | 0.00 | 0.00 | 0.00 | 81 | 1011.5 |
| 20260903135647 | 82 | 126 | 1.0 | 11.0 | 0.00 | 0.00 | 0.00 | 82 | 1011.5 |
| 20260903135142 | 82 | 148 | 5.0 | 9.0 | 0.00 | 0.00 | 0.00 | 82 | 1011.5 |
| 20260903134641 | 81 | 164 | 8.0 | 10.0 | 0.00 | 0.00 | 0.00 | 84 | 1011.3 |
| 20260903134137 | 81 | 240 | 0.0 | 5.0 | 0.00 | 0.00 | 0.00 | 84 | 1011.2 |
| 20260903133635 | 81 | 151 | 2.0 | 6.0 | 0.00 | 0.00 | 0.00 | 84 | 1011.5 |
| 20260903133130 | 81 | 151 | 4.0 | 6.0 | 0.00 | 0.00 | 0.00 | 83 | 1011.4 |
| 20260903132625 | 80 | 130 | 3.0 | 6.0 | 0.00 | 0.00 | 0.00 | 84 | 1011.3 |
| 20260903132119 | 79 | 161 | 0.0 | 6.0 | 0.00 | 0.00 | 0.00 | 86 | 1011.4 |
| 20260903131614 | 79 | 138 | 1.0 | 5.0 | 0.00 | 0.00 | 0.00 | 86 | 1011.4 |
| 20260903131113 | 78 | 86 | 0.0 | 6.0 | 0.00 | 0.00 | 0.00 | 87 | 1011.2 |
| 20260903130609 | 78 | 102 | 2.0 | 4.0 | 0.00 | 0.00 | 0.00 | 88 | 1011.5 |
| 20260903130057 | 77 | 51 | 1.0 | 3.0 | 0.00 | 0.00 | 0.00 | 89 | 1011.4 |
| 20260903125555 | 77 | 32 | 0.0 | 2.0 | 0.00 | 0.00 | 0.00 | 90 | 1011.3 |
| 20260903125050 | 76 | 148 | 0.0 | 3.0 | 0.00 | 0.00 | 0.00 | 91 | 1011.2 |
| 20260903124545 | 76 | 60 | 1.0 | 3.0 | 0.00 | 0.00 | 0.00 | 91 | 1011.4 |
| 20260903124044 | 76 | 103 | 1.0 | 3.0 | 0.00 | 0.00 | 0.00 | 91 | 1011.3 |
| 20260903123544 | 76 | 112 | 0.0 | 4.0 | 0.00 | 0.00 | 0.00 | 91 | 1011.1 |
| 20260903123043 | 76 | 87 | 2.0 | 3.0 | 0.00 | 0.00 | 0.00 | 90 | 1011.1 |
| 20260903122543 | 76 | 87 | 0.0 | 2.0 | 0.00 | 0.00 | 0.00 | 90 | 1011.3 |
| 20260903122042 | 76 | 75 | 1.0 | 3.0 | 0.00 | 0.00 | 0.00 | 90 | 1011.2 |
| 20260903121537 | 76 | 164 | 0.0 | 3.0 | 0.00 | 0.00 | 0.00 | 90 | 1011.1 |
| 20260903121033 | 76 | 71 | 1.0 | 3.0 | 0.00 | 0.00 | 0.00 | 90 | 1011.0 |
| 20260903120532 | 76 | 45 | 0.0 | 4.0 | 0.00 | 0.00 | 0.00 | 90 | 1010.9 |
| 20260903120027 | 76 | 104 | 1.0 | 4.0 | 0.00 | 0.00 | 0.00 | 90 | 1011.1 |
| 20260903115525 | 76 | 173 | 2.0 | 5.0 | 0.00 | 0.00 | 0.00 | 90 | 1011.3 |
| 20260903115020 | 76 | 212 | 0.0 | 2.0 | 0.00 | 0.00 | 0.00 | 90 | 1011.1 |
| 20260903114515 | 76 | 147 | 1.0 | 3.0 | 0.00 | 0.00 | 0.00 | 90 | 1011.0 |
| 20260903114011 | 76 | 89 | 2.0 | 5.0 | 0.00 | 0.00 | 0.00 | 90 | 1010.9 |
| 20260903113507 | 76 | 120 | 1.0 | 4.0 | 0.00 | 0.00 | 0.00 | 90 | 1010.9 |
| 20260903113003 | 76 | 30 | 0.0 | 3.0 | 0.00 | 0.00 | 0.00 | 90 | 1010.8 |
| 20260903112458 | 76 | 101 | 0.0 | 4.0 | 0.00 | 0.00 | 0.00 | 90 | 1010.7 |
| 20260903111957 | 76 | 70 | 1.0 | 5.0 | 0.00 | 0.00 | 0.00 | 90 | 1010.8 |
| 20260903111451 | 76 | 136 | 1.0 | 4.0 | 0.00 | 0.00 | 0.00 | 90 | 1010.8 |
| 20260903110948 | 76 | 80 | 1.0 | 5.0 | 0.00 | 0.00 | 0.00 | 90 | 1010.8 |
| 20260903110443 | 76 | 145 | 2.0 | 4.0 | 0.00 | 0.00 | 0.00 | 90 | 1010.9 |
| 20260903105937 | 76 | 89 | 2.0 | 3.0 | 0.00 | 0.00 | 0.00 | 89 | 1010.8 |
| 20260903105433 | 76 | 55 | 0.0 | 5.0 | 0.00 | 0.00 | 0.00 | 89 | 1010.7 |
| 20260903104932 | 76 | 112 | 1.0 | 5.0 | 0.00 | 0.00 | 0.00 | 89 | 1010.6 |
| 20260903104432 | 76 | 111 | 2.0 | 3.0 | 0.00 | 0.00 | 0.00 | 89 | 1010.6 |
| 20260903103929 | 76 | 108 | 1.0 | 5.0 | 0.00 | 0.00 | 0.00 | 89 | 1010.9 |
| 20260903103425 | 76 | 89 | 0.0 | 6.0 | 0.00 | 0.00 | 0.00 | 89 | 1010.6 |
| 20260903102920 | 76 | 11 | 0.0 | 4.0 | 0.00 | 0.00 | 0.00 | 88 | 1010.8 |
| 20260903102415 | 76 | 131 | 1.0 | 4.0 | 0.00 | 0.00 | 0.00 | 88 | 1010.8 |
| 20260903101914 | 77 | 108 | 1.0 | 6.0 | 0.00 | 0.00 | 0.00 | 88 | 1010.8 |
| 20260903101409 | 77 | 45 | 0.0 | 4.0 | 0.00 | 0.00 | 0.00 | 88 | 1010.9 |
| 20260903100904 | 77 | 50 | 0.0 | 4.0 | 0.00 | 0.00 | 0.00 | 87 | 1010.6 |
| 20260903100400 | 77 | 129 | 3.0 | 4.0 | 0.00 | 0.00 | 0.00 | 87 | 1010.8 |
| 20260903095856 | 77 | 15 | 0.0 | 6.0 | 0.00 | 0.00 | 0.00 | 87 | 1010.7 |
| 20260903095350 | 77 | 124 | 2.0 | 5.0 | 0.00 | 0.00 | 0.00 | 87 | 1010.6 |
| 20260903094845 | 77 | 130 | 2.0 | 3.0 | 0.00 | 0.00 | 0.00 | 87 | 1010.8 |
| 20260903094339 | 77 | 31 | 0.0 | 5.0 | 0.00 | 0.00 | 0.00 | 86 | 1010.9 |
| 20260903093836 | 77 | 69 | 2.0 | 4.0 | 0.00 | 0.00 | 0.00 | 86 | 1010.6 |
| 20260903093330 | 77 | 128 | 1.0 | 3.0 | 0.00 | 0.00 | 0.00 | 86 | 1010.7 |
| 20260903092826 | 77 | 104 | 0.0 | 3.0 | 0.00 | 0.00 | 0.00 | 86 | 1010.5 |
| 20260903092321 | 77 | 138 | 1.0 | 4.0 | 0.00 | 0.00 | 0.00 | 86 | 1010.6 |
| 20260903091819 | 77 | 139 | 0.0 | 2.0 | 0.00 | 0.00 | 0.00 | 86 | 1010.8 |
| 20260903091313 | 77 | 123 | 1.0 | 2.0 | 0.00 | 0.00 | 0.00 | 86 | 1010.7 |
| 20260903090809 | 77 | 185 | 0.0 | 2.0 | 0.00 | 0.00 | 0.00 | 86 | 1010.4 |
| 20260903090309 | 77 | 148 | 0.0 | 3.0 | 0.00 | 0.00 | 0.00 | 86 | 1010.7 |
| 20260903085807 | 77 | 60 | 0.0 | 2.0 | 0.00 | 0.00 | 0.00 | 86 | 1010.7 |
| 20260903085305 | 77 | 106 | 0.0 | 2.0 | 0.00 | 0.00 | 0.00 | 85 | 1010.5 |
| 20260903084800 | 77 | 106 | 0.0 | 0.0 | 0.00 | 0.00 | 0.00 | 85 | 1010.5 |
| 20260903084254 | 77 | 75 | 0.0 | 2.0 | 0.00 | 0.00 | 0.00 | 85 | 1010.6 |
| 20260903083750 | 77 | 112 | 1.0 | 2.0 | 0.00 | 0.00 | 0.00 | 85 | 1010.6 |
| 20260903083245 | 77 | 65 | 0.0 | 2.0 | 0.00 | 0.00 | 0.00 | 85 | 1010.7 |
| 20260903082744 | 77 | 111 | 0.0 | 2.0 | 0.00 | 0.00 | 0.00 | 85 | 1010.6 |
| 20260903082240 | 77 | 40 | 1.0 | 3.0 | 0.00 | 0.00 | 0.00 | 85 | 1010.7 |
| 20260903081739 | 77 | 92 | 2.0 | 3.0 | 0.00 | 0.00 | 0.00 | 85 | 1010.7 |
| 20260903081236 | 77 | 83 | 2.0 | 2.0 | 0.00 | 0.00 | 0.00 | 85 | 1010.8 |
| 20260903080732 | 78 | 76 | 1.0 | 2.0 | 0.00 | 0.00 | 0.00 | 84 | 1010.8 |
| 20260903080229 | 78 | 80 | 2.0 | 2.0 | 0.00 | 0.00 | 0.00 | 84 | 1010.5 |
| 20260903075728 | 78 | 89 | 1.0 | 2.0 | 0.00 | 0.00 | 0.00 | 84 | 1010.7 |
| 20260903075223 | 78 | 88 | 0.0 | 2.0 | 0.00 | 0.00 | 0.00 | 84 | 1010.7 |
| 20260903074722 | 78 | 41 | 0.0 | 2.0 | 0.00 | 0.00 | 0.00 | 84 | 1010.8 |
| 20260903074218 | 78 | 232 | 0.0 | 2.0 | 0.00 | 0.00 | 0.00 | 83 | 1010.8 |
| 20260903073713 | 78 | 145 | 0.0 | 2.0 | 0.00 | 0.00 | 0.00 | 83 | 1010.8 |
| 20260903073208 | 78 | 212 | 0.0 | 1.0 | 0.00 | 0.00 | 0.00 | 83 | 1010.8 |
| 20260903072704 | 78 | 299 | 0.0 | 1.0 | 0.00 | 0.00 | 0.00 | 83 | 1010.8 |
| 20260903072201 | 78 | 119 | 1.0 | 2.0 | 0.00 | 0.00 | 0.00 | 82 | 1010.9 |
| 20260903071656 | 78 | 326 | 0.0 | 3.0 | 0.00 | 0.00 | 0.00 | 82 | 1011.0 |
| 20260903071151 | 78 | 169 | 0.0 | 2.0 | 0.00 | 0.00 | 0.00 | 82 | 1010.8 |
| 20260903070646 | 79 | 149 | 0.0 | 2.0 | 0.00 | 0.00 | 0.00 | 82 | 1011.1 |
| 20260903070142 | 79 | 299 | 0.0 | 0.0 | 0.00 | 0.00 | 0.00 | 81 | 1011.1 |
| 20260903065641 | 79 | 297 | 0.0 | 2.0 | 0.00 | 0.00 | 0.00 | 81 | 1010.9 |
| 20260903065135 | 79 | 142 | 0.0 | 2.0 | 0.00 | 0.00 | 0.00 | 80 | 1011.2 |
| 20260903064630 | 80 | 119 | 0.0 | 2.0 | 0.00 | 0.00 | 0.00 | 80 | 1011.0 |
| 20260903064125 | 80 | 166 | 0.0 | 4.0 | 0.00 | 0.00 | 0.00 | 80 | 1011.1 |
| 20260903063621 | 80 | 173 | 2.0 | 5.0 | 0.00 | 0.00 | 0.00 | 79 | 1011.1 |
| 20260903063115 | 80 | 173 | 2.0 | 4.0 | 0.00 | 0.00 | 0.00 | 79 | 1011.1 |
| 20260903062611 | 80 | 141 | 0.0 | 4.0 | 0.00 | 0.00 | 0.00 | 79 | 1011.1 |
| 20260903062106 | 80 | 169 | 0.0 | 5.0 | 0.00 | 0.00 | 0.00 | 78 | 1011.4 |
| 20260903061607 | 80 | 135 | 0.0 | 6.0 | 0.00 | 0.00 | 0.00 | 77 | 1011.3 |
| 20260903061101 | 80 | 133 | 0.0 | 6.0 | 0.00 | 0.00 | 0.00 | 77 | 1011.4 |
| 20260903060601 | 80 | 176 | 0.0 | 5.0 | 0.00 | 0.00 | 0.00 | 77 | 1011.5 |
| 20260903060056 | 81 | 89 | 0.0 | 5.0 | 0.00 | 0.00 | 0.00 | 77 | 1011.4 |
| 20260903055554 | 81 | 107 | 0.0 | 4.0 | 0.00 | 0.00 | 0.00 | 77 | 1011.4 |
| 20260903055052 | 81 | 195 | 0.0 | 6.0 | 0.00 | 0.00 | 0.00 | 77 | 1011.7 |
| 20260903054547 | 81 | 132 | 3.0 | 5.0 | 0.00 | 0.00 | 0.00 | 77 | 1011.4 |
| 20260903054043 | 81 | 180 | 0.0 | 5.0 | 0.00 | 0.00 | 0.00 | 76 | 1011.5 |
| 20260903053538 | 81 | 164 | 2.0 | 6.0 | 0.00 | 0.00 | 0.00 | 76 | 1011.8 |
| 20260903053035 | 81 | 151 | 1.0 | 7.0 | 0.00 | 0.00 | 0.00 | 75 | 1011.5 |
| 20260903052530 | 82 | 130 | 5.0 | 9.0 | 0.00 | 0.00 | 0.00 | 75 | 1011.5 |
| 20260903052026 | 82 | 165 | 2.0 | 6.0 | 0.00 | 0.00 | 0.00 | 75 | 1011.5 |
| 20260903051525 | 82 | 115 | 1.0 | 4.0 | 0.00 | 0.00 | 0.00 | 74 | 1011.8 |
| 20260903051021 | 82 | 140 | 2.0 | 5.0 | 0.00 | 0.00 | 0.00 | 74 | 1011.4 |
| 20260903050520 | 82 | 167 | 3.0 | 5.0 | 0.00 | 0.00 | 0.00 | 73 | 1011.4 |
| 20260903050016 | 82 | 118 | 2.0 | 6.0 | 0.00 | 0.00 | 0.00 | 73 | 1011.7 |
| 20260903045510 | 83 | 125 | 2.0 | 6.0 | 0.00 | 0.00 | 0.00 | 72 | 1011.3 |
| 20260903045007 | 82 | 162 | 3.0 | 6.0 | 0.00 | 0.00 | 0.00 | 73 | 1011.3 |
| 20260903044503 | 83 | 100 | 1.0 | 5.0 | 0.00 | 0.00 | 0.00 | 72 | 1011.4 |
| 20260903043958 | 83 | 41 | 0.0 | 6.0 | 0.00 | 0.00 | 0.00 | 72 | 1011.5 |
| 20260903043454 | 83 | 228 | 0.0 | 5.0 | 0.00 | 0.00 | 0.00 | 71 | 1011.4 |
| 20260903042952 | 83 | 155 | 0.0 | 7.0 | 0.00 | 0.00 | 0.00 | 71 | 1011.4 |
| 20260903042448 | 84 | 98 | 2.0 | 5.0 | 0.00 | 0.00 | 0.00 | 71 | 1011.2 |
| 20260903041943 | 84 | 139 | 2.0 | 6.0 | 0.00 | 0.00 | 0.00 | 71 | 1011.5 |
| 20260903041440 | 84 | 247 | 1.0 | 3.0 | 0.00 | 0.00 | 0.00 | 70 | 1011.3 |
| 20260903040935 | 84 | 176 | 0.0 | 3.0 | 0.00 | 0.00 | 0.00 | 70 | 1011.5 |
| 20260903040434 | 85 | 141 | 2.0 | 9.0 | 0.00 | 0.00 | 0.00 | 69 | 1011.3 |
| 20260903035930 | 85 | 58 | 1.0 | 5.0 | 0.00 | 0.00 | 0.00 | 69 | 1011.3 |
| 20260903035425 | 85 | 154 | 5.0 | 6.0 | 0.00 | 0.00 | 0.00 | 69 | 1011.5 |
| 20260903034920 | 85 | 192 | 1.0 | 4.0 | 0.00 | 0.00 | 0.00 | 69 | 1011.4 |
| 20260903034415 | 85 | 151 | 1.0 | 8.0 | 0.00 | 0.00 | 0.00 | 68 | 1011.5 |
| 20260903033910 | 85 | 166 | 2.0 | 7.0 | 0.00 | 0.00 | 0.00 | 68 | 1011.5 |
| 20260903033406 | 86 | 144 | 3.0 | 5.0 | 0.00 | 0.00 | 0.00 | 67 | 1011.3 |
| 20260903032906 | 86 | 155 | 2.0 | 3.0 | 0.00 | 0.00 | 0.00 | 67 | 1011.1 |
| 20260903032401 | 86 | 145 | 4.0 | 5.0 | 0.00 | 0.00 | 0.00 | 67 | 1011.3 |
| 20260903031856 | 86 | 310 | 0.0 | 8.0 | 0.00 | 0.00 | 0.00 | 66 | 1011.3 |
| 20260903031355 | 86 | 103 | 2.0 | 9.0 | 0.00 | 0.00 | 0.00 | 66 | 1011.3 |
| 20260903030851 | 87 | 160 | 2.0 | 5.0 | 0.00 | 0.00 | 0.00 | 66 | 1011.3 |
| 20260903030347 | 87 | 155 | 4.0 | 7.0 | 0.00 | 0.00 | 0.00 | 65 | 1011.1 |
| 20260903025843 | 87 | 107 | 2.0 | 7.0 | 0.00 | 0.00 | 0.00 | 66 | 1011.2 |
| 20260903025338 | 87 | 118 | 0.0 | 11.0 | 0.00 | 0.00 | 0.00 | 65 | 1011.1 |
| 20260903024837 | 87 | 141 | 3.0 | 7.0 | 0.00 | 0.00 | 0.00 | 65 | 1011.1 |
| 20260903024332 | 87 | 140 | 4.0 | 8.0 | 0.00 | 0.00 | 0.00 | 64 | 1010.9 |
| 20260903023828 | 87 | 174 | 2.0 | 6.0 | 0.00 | 0.00 | 0.00 | 64 | 1010.7 |
| 20260903023323 | 88 | 100 | 4.0 | 7.0 | 0.00 | 0.00 | 0.00 | 63 | 1010.8 |
| 20260903022818 | 88 | 112 | 2.0 | 5.0 | 0.00 | 0.00 | 0.00 | 63 | 1010.5 |